Location: Passau
(48.5830°N, 13.4830°E)
Time: 15:38:57
(UTC+02:00)

Vanguard 1 Rocket - Pass Details

Date: 30 May 2024
Orbit: 650 x 4220 km, 34.3° (Epoch: 23 June)

Event Time Altitude Azimuth Distance (km) Brightness Sun altitude
Rises 04:07:51 0° 166° (SSE) 8,121 11.9 -8.5°
Reaches altitude 10° 04:23:40 10° 133° (SE) 7,416 12.1 -6.7°
Maximum altitude 04:26:30 10° 126° (SE) 7,365 12.1 -6.3°
Drops below altitude 10° 04:29:16 10° 120° (ESE) 7,341 12.2 -6.0°
Sets 04:43:46 0° 88° (E) 7,717 13.1 -4.2°
